H1 CPF 1 NER 2017 7 18 9 6991 glonass106 H2 0705201 9106 32275 2017 7 18 0 0 0 2017 7 21 23 45 0 900 1 1 0 0 0 H9 10 0 57952 0.00000 0 17909729.494 -15420925.269 -9605595.537 10 0 57952 900.00000 0 16955731.500 -14433975.529 -12450732.196 10 0 57952 1800.00000 0 15897816.523 -13096275.037 -15054120.879 10 0 57952 2700.00000 0 14797438.349 -11418482.322 -17365243.704 10 0 57952 3600.00000 0 13714424.210 -9424367.252 -19339264.680 10 0 57952 4500.00000 0 12704393.943 -7150065.645 -20937895.552 10 0 57952 5400.00000 0 11816375.254 -4642821.879 -22130134.077 10 0 57952 6300.00000 0 11090714.983 -1959270.865 -22892861.041 10 0 57952 7200.00000 0 10557373.580 836669.892 -23211285.046 10 0 57952 8100.00000 0 10234673.839 3676211.514 -23079227.013 10 0 57952 9000.00000 0 10128555.894 6488309.247 -22499239.310 10 0 57952 9900.00000 0 10232369.378 9202374.575 -21482557.271 10 0 57952 10800.00000 0 10527211.234 11750972.555 -20048884.010 10 0 57952 11700.00000 0 10982794.960 14072393.374 -18226012.290 10 0 57952 12600.00000 0 11558814.877 16112992.071 -16049290.253 10 0 57952 13500.00000 0 12206748.253 17829199.968 -13560940.703 10 0 57952 14400.00000 0 12872019.686 19189124.614 -10809246.410 10 0 57952 15300.00000 0 13496436.717 20173671.987 -7847616.677 10 0 57952 16200.00000 0 14020794.030 20777144.506 -4733552.826 10 0 57952 17100.00000 0 14387536.186 21007290.231 -1527532.373 10 0 57952 18000.00000 0 14543366.057 20884801.524 1708166.307 10 0 57952 18900.00000 0 14441688.212 20442284.719 4910675.854 10 0 57952 19800.00000 0 14044783.185 19722744.573 8017764.375 10 0 57952 20700.00000 0 13325619.849 18777647.830 10969048.090 10 0 57952 21600.00000 0 12269228.295 17664648.012 13707168.116 10 0 57952 22500.00000 0 10873574.151 16445067.811 16178908.069 10 0 57952 23400.00000 0 9149896.361 15181245.637 18336230.321 10 0 57952 24300.00000 0 7122493.011 13933858.449 20137210.674 10 0 57952 25200.00000 0 4827963.029 12759333.777 21546853.296 10 0 57952 26100.00000 0 2313934.473 11707459.888 22537770.207 10 0 57952 27000.00000 0 -362668.486 10819294.514 23090712.434 10 0 57952 27900.00000 0 -3137748.540 10125459.707 23194942.864 10 0 57952 28800.00000 0 -5942460.527 9644894.162 22848443.785 10 0 57952 29700.00000 0 -8705838.886 9384114.921 22057955.380 10 0 57952 30600.00000 0 -11357518.767 9337019.009 20838844.454 10 0 57952 31500.00000 0 -13830438.206 9485232.874 19214805.924 10 0 57952 32400.00000 0 -16063409.622 9798994.462 17217402.690 10 0 57952 33300.00000 0 -18003454.211 10238530.404 14885452.552 10 0 57952 34200.00000 0 -19607802.470 10755869.937 12264273.852 10 0 57952 35100.00000 0 -20845478.036 11297018.676 9404804.254 10 0 57952 36000.00000 0 -21698399.323 11804400.146 6362609.660 10 0 57952 36900.00000 0 -22161953.505 12219461.550 3196802.594 10 0 57952 37800.00000 0 -22245019.648 12485333.173 -31108.746 10 0 57952 38700.00000 0 -21969440.845 12549428.519 -3258418.090 10 0 57952 39600.00000 0 -21368968.437 12365874.699 -6422441.600 10 0 57952 40500.00000 0 -20487723.646 11897669.783 -9461737.105 10 0 57952 41400.00000 0 -19378242.158 11118475.369 -12317298.049 10 0 57952 42300.00000 0 -18099184.719 10013968.145 -14933698.589 10 0 57952 43200.00000 0 -16712810.572 8582692.816 -17260167.604 10 0 57952 44100.00000 0 -15282320.345 6836379.785 -19251570.917 10 0 57952 45000.00000 0 -13869180.091 4799713.511 -20869282.975 10 0 57952 45900.00000 0 -12530538.687 2509560.355 -22081931.670 10 0 57952 46800.00000 0 -11316846.480 13687.201 -22866002.465 10 0 57952 47700.00000 0 -10269774.465 -2630976.677 -23206290.757 10 0 57952 48600.00000 0 -9420520.444 -5360463.252 -23096194.281 10 0 57952 49500.00000 0 -8788572.365 -8106187.738 -22537840.284 10 0 57952 50400.00000 0 -8380979.954 -10797569.392 -21542045.166 10 0 57952 51300.00000 0 -8192164.548 -13364743.370 -20128107.291 10 0 57952 52200.00000 0 -8204274.639 -15741252.059 -18323436.622 10 0 57952 53100.00000 0 -8388071.910 -17866604.791 -16163027.854 10 0 57952 54000.00000 0 -8704310.366 -19688600.247 -13688786.580 10 0 57952 54900.00000 0 -9105550.475 -21165315.346 -10948720.827 10 0 57952 55800.00000 0 -9538331.855 -22266677.983 -7996013.078 10 0 57952 56700.00000 0 -9945612.789 -22975558.218 -4887990.284 10 0 57952 57600.00000 0 -10269373.380 -23288332.427 -1685011.570 10 0 57952 58500.00000 0 -10453271.993 -23214896.898 1550704.702 10 0 57952 59400.00000 0 -10445242.144 -22778130.519 4756291.554 10 0 57952 60300.00000 0 -10199919.263 -22012829.369 7869457.803 10 0 57952 61200.00000 0 -9680793.858 -20964158.342 10829701.849 10 0 57952 62100.00000 0 -8861999.043 -19685685.313 13579490.770 10 0 57952 63000.00000 0 -7729655.813 -18237080.974 16065381.352 10 0 57952 63900.00000 0 -6282718.170 -16681581.529 18239060.792 10 0 57952 64800.00000 0 -4533281.291 -15083321.236 20058286.781 10 0 57952 65700.00000 0 -2506338.546 -13504647.120 21487708.653 10 0 57952 66600.00000 0 -238996.399 -12003528.687 22499553.801 10 0 57952 67500.00000 0 2220821.093 -10631171.212 23074166.332 10 0 57952 68400.00000 0 4816125.164 -9429932.388 23200387.814 10 0 57952 69300.00000 0 7483000.391 -8431629.225 22875773.017 10 0 57952 70200.00000 0 10153039.742 -7656305.567 22106636.701 10 0 57952 71100.00000 0 12755976.060 -7111511.170 20907930.604 10 0 57952 72000.00000 0 15222401.047 -6792121.873 19302952.997 10 0 57952 72900.00000 0 17486459.192 -6680707.615 17322896.280 10 0 57952 73800.00000 0 19488404.964 -6748432.076 15006241.116 10 0 57952 74700.00000 0 21176917.035 -6956445.392 12398008.655 10 0 57952 75600.00000 0 22511073.405 -7257710.574 9548885.124 10 0 57952 76500.00000 0 23461905.317 -7599185.939 6514235.658 10 0 57952 77400.00000 0 24013465.343 -7924270.790 3353026.604 10 0 57952 78300.00000 0 24163365.424 -8175410.345 126677.435 10 0 57952 79200.00000 0 23922762.903 -8296749.152 -3102135.155 10 0 57952 80100.00000 0 23315795.774 -8236720.133 -6270697.202 10 0 57952 81000.00000 0 22378491.600 -7950459.151 -9317477.366 10 0 57952 81900.00000 0 21157196.652 -7401942.384 -12183322.704 10 0 57952 82800.00000 0 19706591.956 -6565755.619 -14812606.730 10 0 57952 83700.00000 0 18087380.118 -5428420.204 -17154307.431 10 0 57952 84600.00000 0 16363740.386 -3989219.057 -19162994.480 10 0 57952 85500.00000 0 14600658.883 -2260487.313 -20799706.738 10 0 57953 0.00000 0 12861245.745 -267354.610 -22032703.592 10 0 57953 900.00000 0 11204151.266 1953051.607 -22838076.284 10 0 57953 1800.00000 0 9681188.053 4352908.337 -23200207.736 10 0 57953 2700.00000 0 8335259.017 6875453.302 -23112072.888 10 0 57953 3600.00000 0 7198675.393 9457121.878 -22575373.929 10 0 57953 4500.00000 0 6291935.424 12029977.650 -21600508.022 10 0 57953 5400.00000 0 5623013.305 14524336.440 -20206368.112 10 0 57953 6300.00000 0 5187187.495 16871475.810 -18419980.326 10 0 57953 7200.00000 0 4967414.946 19006318.141 -16275984.489 10 0 57953 8100.00000 0 4935235.002 20869976.330 -13815967.166 10 0 57953 9000.00000 0 5052164.576 22412056.529 -11087659.432 10 0 57953 9900.00000 0 5271525.618 23592622.052 -8144014.356 10 0 57953 10800.00000 0 5540627.510 24383736.546 -5042181.583 10 0 57953 11700.00000 0 5803212.003 24770521.843 -1842398.621 10 0 57953 12600.00000 0 6002056.957 24751686.043 1393179.604 10 0 57953 13500.00000 0 6081628.266 24339499.657 4601690.023 10 0 57953 14400.00000 0 5990667.097 23559220.745 7720785.653 10 0 57953 15300.00000 0 5684602.161 22447993.281 10689850.448 10 0 57953 16200.00000 0 5127684.059 21053265.188 13451180.605 10 0 57953 17100.00000 0 4294750.420 19430792.739 15951108.937 10 0 57953 18000.00000 0 3172546.228 17642315.433 18141050.011 10 0 57953 18900.00000 0 1760542.490 15752999.218 19978445.573 10 0 57953 19800.00000 0 71217.573 13828755.463 21427591.914 10 0 57953 20700.00000 0 -1870211.752 11933548.179 22460333.176 10 0 57953 21600.00000 0 -4026599.475 10126802.126 23056607.466 10 0 57953 22500.00000 0 -6350187.005 8461019.971 23204835.486 10 0 57953 23400.00000 0 -8784373.284 6979707.768 22902144.410 10 0 57953 24300.00000 0 -11265865.469 5715694.811 22154422.939 10 0 57953 25200.00000 0 -13727121.366 4689917.347 20976206.527 10 0 57953 26100.00000 0 -16098982.487 3910716.188 19390394.996 10 0 57953 27000.00000 0 -18313388.591 3373676.619 17427807.885 10 0 57953 27900.00000 0 -20306061.025 3062016.313 15126585.862 10 0 57953 28800.00000 0 -22019043.204 2947503.991 12531449.616 10 0 57953 29700.00000 0 -23402992.411 2991869.183 9692830.387 10 0 57953 30600.00000 0 -24419127.353 3148642.786 6665888.824 10 0 57953 31500.00000 0 -25040750.084 3365349.908 3509441.360 10 0 57953 32400.00000 0 -25254278.797 3585961.549 284815.074 10 0 57953 33300.00000 0 -25059748.464 3753500.692 -2945346.411 10 0 57953 34200.00000 0 -24470758.631 3812691.853 -6118302.275 10 0 57953 35100.00000 0 -23513871.048 3712541.321 -9172435.011 10 0 57953 36000.00000 0 -22227482.875 3408738.282 -12048447.980 10 0 57953 36900.00000 0 -20660223.298 2865774.766 -14690516.390 10 0 57953 37800.00000 0 -18868941.266 2058694.279 -17047369.284 10 0 57953 38700.00000 0 -16916369.029 974394.769 -19073281.671 10 0 57953 39600.00000 0 -14868559.521 -387569.556 -20728957.822 10 0 57953 40500.00000 0 -12792204.734 -2014722.009 -21982289.125 10 0 57953 41400.00000 0 -10751946.829 -3881944.825 -22808972.479 10 0 57953 42300.00000 0 -8807793.772 -5952297.324 -23192977.805 10 0 57953 43200.00000 0 -7012746.552 -8178337.745 -23126856.260 10 0 57953 44100.00000 0 -5410736.020 -10503894.746 -22611883.591 10 0 57953 45000.00000 0 -4034954.467 -12866215.865 -21658036.009 10 0 57953 45900.00000 0 -2906650.459 -15198404.649 -20283799.076 10 0 57953 46800.00000 0 -2034436.291 -17432046.009 -18515812.912 10 0 57953 47700.00000 0 -1414136.105 -19499911.360 -16388360.166 10 0 57953 48600.00000 0 -1029180.226 -21338631.480 -13942705.979 10 0 57953 49500.00000 0 -851528.471 -22891226.175 -11226302.048 10 0 57953 50400.00000 0 -843083.097 -24109385.208 -8291869.604 10 0 57953 51300.00000 0 -957531.388 -24955405.232 -5196378.606 10 0 57953 52200.00000 0 -1142539.687 -25403701.451 -1999942.627 10 0 57953 53100.00000 0 -1342205.757 -25441830.325 1235349.078 10 0 57953 54000.00000 0 -1499665.231 -25070980.147 4446639.499 10 0 57953 54900.00000 0 -1559741.217 -24305908.526 7571527.950 10 0 57953 55800.00000 0 -1471524.196 -23174329.200 10549285.944 10 0 57953 56700.00000 0 -1190772.205 -21715773.782 13322040.713 10 0 57953 57600.00000 0 -682028.820 -19979976.198 15835902.917 10 0 57953 58500.00000 0 79631.499 -18024847.701 18042016.137 10 0 57953 59400.00000 0 1107305.436 -15914127.452 19897507.634 10 0 57953 60300.00000 0 2401466.007 -13714807.168 21366321.863 10 0 57953 61200.00000 0 3949705.397 -11494437.664 22419920.657 10 0 57953 62100.00000 0 5727027.357 -9318429.790 23037836.775 10 0 57953 63000.00000 0 7696677.997 -7247462.190 23208070.407 10 0 57953 63900.00000 0 9811481.154 -5335103.756 22927321.205 10 0 57953 64800.00000 0 12015623.510 -3625749.301 22201051.606 10 0 57953 65700.00000 0 14246815.751 -2152953.823 21043380.322 10 0 57953 66600.00000 0 16438740.231 -938234.011 19476808.027 10 0 57953 67500.00000 0 18523683.583 9614.014 17531780.447 10 0 57953 68400.00000 0 20435244.823 694653.316 15246097.046 10 0 57953 69300.00000 0 22111006.066 1133396.439 12664176.571 10 0 57953 70200.00000 0 23495054.368 1353865.798 9836193.485 10 0 57953 71100.00000 0 24540249.267 1394164.831 6817101.865 10 0 57953 72000.00000 0 25210140.976 1300621.173 3665565.825 10 0 57953 72900.00000 0 25480458.845 1125581.234 442817.389 10 0 57953 73800.00000 0 25340107.640 924950.314 -2788535.757 10 0 57953 74700.00000 0 24791629.890 755583.078 -5965728.908 10 0 57953 75600.00000 0 23851115.035 672635.557 -9027061.353 10 0 57953 76500.00000 0 22547559.407 726991.383 -11913095.611 10 0 57953 77400.00000 0 20921704.150 962871.637 -14567811.235 10 0 57953 78300.00000 0 19024400.073 1415729.886 -16939690.731 10 0 57953 79200.00000 0 16914568.091 2110521.723 -18982716.583 10 0 57953 80100.00000 0 14656840.710 3060422.258 -20657260.333 10 0 57953 81000.00000 0 12318983.011 4266046.081 -21930846.975 10 0 57953 81900.00000 0 9969200.451 5715203.160 -22778780.467 10 0 57953 82800.00000 0 7673445.290 7383201.610 -23184618.839 10 0 57953 83700.00000 0 5492833.088 9233685.611 -23140490.318 10 0 57953 84600.00000 0 3481275.935 11219974.442 -22647244.748 10 0 57953 85500.00000 0 1683429.994 13286847.767 -21714437.605 10 0 57954 0.00000 0 133041.674 15372703.768 -20360146.935 10 0 57954 900.00000 0 -1148239.608 17412001.266 -18610626.205 10 0 57954 1800.00000 0 -2151534.089 19337884.665 -16499799.936 10 0 57954 2700.00000 0 -2880861.508 21084882.905 -14068610.417 10 0 57954 3600.00000 0 -3352725.023 22591570.536 -11364228.111 10 0 57954 4500.00000 0 -3595166.243 23803079.395 -8439140.150 10 0 57954 5400.00000 0 -3646332.372 24673356.069 -5350134.171 10 0 57954 6300.00000 0 -3552616.250 25167070.175 -2157196.854 10 0 57954 7200.00000 0 -3366448.367 25261093.013 1077651.437 10 0 57954 8100.00000 0 -3143834.743 24945483.999 4291563.138 10 0 57954 9000.00000 0 -2941745.440 24223942.853 7422087.317 10 0 57954 9900.00000 0 -2815464.890 23113708.065 10408386.483 10 0 57954 10800.00000 0 -2816016.943 21644905.415 13192422.233 10 0 57954 11700.00000 0 -2987774.384 19859373.567 15720086.207 10 0 57954 12600.00000 0 -3366354.831 17809015.803 17942253.900 10 0 57954 13500.00000 0 -3976892.763 15553746.811 19815740.696 10 0 57954 14400.00000 0 -4832761.499 13159120.356 21304141.501 10 0 57954 15300.00000 0 -5934799.827 10693736.964 22378537.753 10 0 57954 16200.00000 0 -7271076.733 8226539.663 23018058.377 10 0 57954 17100.00000 0 -8817205.077 5824110.318 23210284.110 10 0 57954 18000.00000 0 -10537191.860 3548078.852 22951487.637 10 0 57954 18900.00000 0 -12384790.377 1452752.739 22246705.146 10 0 57954 19800.00000 0 -14305298.465 -416935.295 21109638.027 10 0 57954 20700.00000 0 -16237728.265 -2027076.627 19562386.619 10 0 57954 21600.00000 0 -18117257.384 -3355965.467 17635021.041 10 0 57954 22500.00000 0 -19877859.351 -4394758.894 15364997.196 10 0 57954 23400.00000 0 -21455003.552 -5147591.748 12796429.026 10 0 57954 24300.00000 0 -22788311.736 -5631142.908 9979230.935 10 0 57954 25200.00000 0 -23824059.758 -5873672.402 6968146.836 10 0 57954 26100.00000 0 -24517419.500 -5913571.084 3821684.754 10 0 57954 27000.00000 0 -24834346.708 -5797485.172 600977.795 10 0 57954 27900.00000 0 -24753035.266 -5578095.878 -2631406.117 10 0 57954 28800.00000 0 -24264876.609 -5311648.922 -5812682.131 10 0 57954 29700.00000 0 -23374883.855 -5055339.202 -8881069.886 10 0 57954 30600.00000 0 -22101562.753 -4864662.003 -11776994.382 10 0 57954 31500.00000 0 -20476234.849 -4790843.314 -14444242.546 10 0 57954 32400.00000 0 -18541841.277 -4878458.357 -16831052.980 10 0 57954 33300.00000 0 -16351277.218 -5163339.296 -18891117.825 10 0 57954 34200.00000 0 -13965326.666 -5670860.699 -20584477.538 10 0 57954 35100.00000 0 -11450283.545 -6414675.329 -21878291.745 10 0 57954 36000.00000 0 -8875358.006 -7395953.844 -22747471.861 10 0 57954 36900.00000 0 -6309975.471 -8603160.813 -23175163.780 10 0 57954 37800.00000 0 -3821080.062 -10012377.071 -23153071.961 10 0 57954 38700.00000 0 -1470553.628 -11588155.707 -22681618.990 10 0 57954 39600.00000 0 687143.252 -13284876.723 -21769937.825 10 0 57954 40500.00000 0 2607011.358 -15048544.667 -20435696.790 10 0 57954 41400.00000 0 4255150.256 -16818955.122 -18704760.481 10 0 57954 42300.00000 0 5609925.894 -18532140.309 -16610692.639 10 0 57954 43200.00000 0 6662620.740 -20122992.330 -14194110.034 10 0 57954 44100.00000 0 7417540.277 -21527954.832 -11501899.130 10 0 57954 45000.00000 0 7891572.193 -22687670.625 -8586310.168 10 0 57954 45900.00000 0 8113217.616 -23549474.286 -5503945.664 10 0 57954 46800.00000 0 8121135.809 -24069624.934 -2314662.650 10 0 57954 47700.00000 0 7962264.311 -24215184.877 919590.075 10 0 57954 48600.00000 0 7689594.522 -23965464.602 4135976.953 10 0 57954 49500.00000 0 7359697.356 -23312972.546 7271999.209 10 0 57954 50400.00000 0 7030104.280 -22263829.013 10266712.574 10 0 57954 51300.00000 0 6756655.214 -20837626.069 13061915.013 10 0 57954 52200.00000 0 6590926.219 -19066738.667 15603280.902 10 0 57954 53100.00000 0 6577846.423 -16995115.376 17841419.131 10 0 57954 54000.00000 0 6753605.609 -14676598.976 19732834.378 10 0 57954 54900.00000 0 7143941.486 -12172846.809 21240772.854 10 0 57954 55800.00000 0 7762879.513 -9550937.549 22335936.137 10 0 57954 56700.00000 0 8611979.013 -6880763.958 22997049.539 10 0 57954 57600.00000 0 9680117.961 -4232319.899 23211274.280 10 0 57954 58500.00000 0 10943826.126 -1672994.223 22974455.758 10 0 57954 59400.00000 0 12368153.227 735016.439 22291203.369 10 0 57954 60300.00000 0 13908036.365 2937069.054 21174800.463 10 0 57954 61200.00000 0 15510109.952 4888112.206 19646946.158 10 0 57954 62100.00000 0 17114882.797 6554316.867 17737333.949 10 0 57954 63000.00000 0 18659191.519 7914233.054 15483074.987 10 0 57954 63900.00000 0 20078827.641 8959425.137 12927977.049 10 0 57954 64800.00000 0 21311228.278 9694560.562 10121692.926 10 0 57954 65700.00000 0 22298117.456 10136949.526 7118754.591 10 0 57954 66600.00000 0 22987986.868 10315556.186 3977511.966 10 0 57954 67500.00000 0 23338311.588 10269524.309 758997.006 10 0 57954 68400.00000 0 23317407.196 10046280.653 -2474264.552 10 0 57954 69300.00000 0 22905849.848 9699297.195 -5659470.242 10 0 57954 70200.00000 0 22097399.238 9285607.701 -8734762.632 10 0 57954 71100.00000 0 20899385.306 8863184.374 -11640431.731 10 0 57954 72000.00000 0 19332542.201 8488286.107 -14320074.249 10 0 57954 72900.00000 0 17430296.203 8212890.835 -16721687.134 10 0 57954 73800.00000 0 15237537.154 8082320.772 -18798674.242 10 0 57954 74700.00000 0 12808924.561 8133160.884 -20510746.813 10 0 57954 75600.00000 0 10206798.727 8391558.477 -21824700.807 10 0 57954 76500.00000 0 7498783.513 8871975.599 -22715056.618 10 0 57954 77400.00000 0 4755179.998 9576446.889 -23164549.365 10 0 57954 78300.00000 0 2046258.665 10494374.298 -23164460.875 10 0 57954 79200.00000 0 -560438.321 11602867.753 -22714787.364 10 0 57954 80100.00000 0 -3002673.583 12867618.026 -21824239.821 10 0 57954 81000.00000 0 -5225863.872 14244265.946 -20510077.074 10 0 57954 81900.00000 0 -7185105.756 15680211.420 -18797774.530 10 0 57954 82800.00000 0 -8846794.426 17116787.226 -16720534.534 10 0 57954 83700.00000 0 -10189769.228 18491707.246 -14318647.226 10 0 57954 84600.00000 0 -11205939.154 19741687.059 -11638713.573 10 0 57954 85500.00000 0 -11900362.893 20805127.267 -8732745.035 10 0 57955 0.00000 0 -12290780.997 21624746.995 -5657156.863 10 0 57955 900.00000 0 -12406620.417 22150056.416 -2471673.791 10 0 57955 1800.00000 0 -12287514.191 22339564.767 761829.646 10 0 57955 2700.00000 0 -11981398.958 22162628.548 3980532.859 10 0 57955 3600.00000 0 -11542271.675 21600863.225 7121892.342 10 0 57955 4500.00000 0 -11027700.622 20649056.676 10124860.240 10 0 57955 5400.00000 0 -10496196.735 19315545.674 12931074.098 10 0 57955 6300.00000 0 -10004556.974 17622038.447 15485994.195 10 0 57955 7200.00000 0 -9605292.653 15602890.032 17739965.869 10 0 57955 8100.00000 0 -9344251.930 13303860.051 19649185.973 10 0 57955 9000.00000 0 -9258537.345 10780404.256 21176554.669 10 0 57955 9900.00000 0 -9374806.664 8095570.785 22292396.029 10 0 57955 10800.00000 0 -9708029.031 5317588.375 22975033.768 10 0 57955 11700.00000 0 -10260749.170 2517246.526 23211211.205 10 0 57955 12600.00000 0 -11022890.884 -234823.757 22996347.621 10 0 57955 13500.00000 0 -11972108.503 -2870856.164 22334626.297 10 0 57955 14400.00000 0 -13074671.865 -5328530.361 21238912.679 10 0 57955 15300.00000 0 -14286848.008 -7553321.709 19730504.243 10 0 57955 16200.00000 0 -15556721.882 -9500522.523 17838716.851 10 0 57955 17100.00000 0 -16826379.948 -11136851.712 15600315.345 10 0 57955 18000.00000 0 -18034365.035 -12441586.599 13058799.245 10 0 57955 18900.00000 0 -19118299.431 -13407170.873 10263557.170 10 0 57955 19800.00000 0 -20017565.778 -14039274.375 7268906.183 10 0 57955 20700.00000 0 -20675932.779 -14356303.437 4133034.816 10 0 57955 21600.00000 0 -21044014.875 -14388383.580 916870.351 10 0 57955 22500.00000 0 -21081461.862 -14175858.609 -2317107.351 10 0 57955 23400.00000 0 -20758785.774 -13767370.430 -5506081.982 10 0 57955 24300.00000 0 -20058747.610 -13217601.666 -8588122.842 10 0 57955 25200.00000 0 -18977245.019 -12584777.222 -11503388.689 10 0 57955 26100.00000 0 -17523663.154 -11928030.978 -14195289.618 10 0 57955 27000.00000 0 -15720673.507 -11304749.335 -16611584.275 10 0 57955 27900.00000 0 -13603488.625 -10768003.977 -18705391.226 10 0 57955 28800.00000 0 -11218603.487 -10364182.288 -20436095.023 10 0 57955 29700.00000 0 -8622075.574 -10130915.205 -21770129.907 10 0 57955 30600.00000 0 -5877414.680 -10095389.646 -22681626.558 10 0 57955 31500.00000 0 -3053169.732 -10273116.351 -23152909.932 10 0 57955 32400.00000 0 -220312.061 -10667204.807 -23174839.178 10 0 57955 33300.00000 0 2550477.116 -11268175.756 -22746983.481 10 0 57955 34200.00000 0 5191503.312 -12054319.307 -21877630.663 10 0 57955 35100.00000 0 7640628.670 -12992583.980 -20583628.415 10 0 57955 36000.00000 0 9843609.471 -14039959.866 -18890060.939 10 0 57955 36900.00000 0 11756105.106 -15145298.433 -16829766.851 10 0 57955 37800.00000 0 13345275.883 -16251493.154 -14442707.073 10 0 57955 38700.00000 0 14590904.010 -17297929.908 -11775194.239 10 0 57955 39600.00000 0 15485991.674 -18223104.468 -8878997.998 10 0 57955 40500.00000 0 16036811.979 -18967297.151 -5810343.001 10 0 57955 41400.00000 0 16262411.259 -19475191.888 -2628818.652 10 0 57955 42300.00000 0 16193584.295 -19698329.002 603778.229 10 0 57955 43200.00000 0 15871366.183 -19597287.707 3824645.287 10 0 57955 44100.00000 0 15345105.035 -19143505.473 6971197.388 10 0 57955 45000.00000 0 14670197.418 -18320656.593 9982285.939 10 0 57955 45900.00000 0 13905582.763 -17125530.833 12799390.593 10 0 57955 46800.00000 0 13111103.151 -15568374.070 15367759.669 10 0 57955 47700.00000 0 12344840.504 -13672675.555 17637476.665 10 0 57955 48600.00000 0 11660544.089 -11474409.771 19564431.888 10 0 57955 49500.00000 0 11105257.208 -9020763.690 21111180.292 10 0 57955 50400.00000 0 10717243.449 -6368401.944 22247668.882 10 0 57955 51300.00000 0 10524299.993 -3581341.578 22951819.823 10 0 57955 52200.00000 0 10542529.096 -728524.299 23209958.251 10 0 57955 53100.00000 0 10775619.456 2118813.266 23017076.756 10 0 57955 54000.00000 0 11214667.678 4889862.591 22376931.697 10 0 57955 54900.00000 0 11838547.378 7516947.027 21301969.616 10 0 57955 55800.00000 0 12614810.423 9938094.559 19813085.204 10 0 57955 56700.00000 0 13501082.463 12099373.327 17939215.426 10 0 57955 57600.00000 0 14446894.142 13956893.563 15716777.439 10 0 57955 58500.00000 0 15395870.914 15478393.309 13188961.019 10 0 57955 59400.00000 0 16288189.284 16644342.762 10404888.980 10 0 57955 60300.00000 0 17063195.853 17448522.073 7418661.709 10 0 57955 61200.00000 0 17662078.558 17898049.463 4288304.402 10 0 57955 62100.00000 0 18030477.131 18012859.607 1074637.568 10 0 57955 63000.00000 0 18120922.227 17824655.336 -2159907.046 10 0 57955 63900.00000 0 17894999.831 17375377.857 -5352501.615 10 0 57955 64800.00000 0 17325149.088 16715260.973 -8441144.512 10 0 57955 65700.00000 0 16396017.213 15900552.258 -11365865.557 10 0 57955 66600.00000 0 15105313.792 14990998.013 -14069890.431 10 0 57955 67500.00000 0 13464127.953 14047198.650 -16500741.573 10 0 57955 68400.00000 0 11496694.415 13127946.291 -18611254.195 10 0 57955 69300.00000 0 9239617.568 12287656.879 -20360487.953 10 0 57955 70200.00000 0 6740585.340 11574004.815 -21714517.028 10 0 57955 71100.00000 0 4056625.699 11025859.343 -22647083.903 10 0 57955 72000.00000 0 1251977.653 10671609.075 -23140104.742 10 0 57955 72900.00000 0 -1604335.605 10527944.621 -23184017.184 10 0 57955 73800.00000 0 -4441131.621 10599150.089 -22777964.290 10 0 57955 74700.00000 0 -7187783.623 10876932.950 -21929811.304 10 0 57955 75600.00000 0 -9776913.900 11340799.315 -20655994.971 10 0 57955 76500.00000 0 -12146954.861 11958958.946 -18981208.070 10 0 57955 77400.00000 0 -14244472.278 12689722.230 -16937924.850 10 0 57955 78300.00000 0 -16026155.048 13483330.715 -14565775.962 10 0 57955 79200.00000 0 -17460389.408 14284144.595 -11910784.319 10 0 57955 80100.00000 0 -18528352.546 15033095.317 -9024476.057 10 0 57955 81000.00000 0 -19224580.553 15670300.170 -5962883.349 10 0 57955 81900.00000 0 -19556987.459 16137728.534 -2785457.973 10 0 57955 82800.00000 0 -19546334.998 16381807.020 446083.268 10 0 57955 83700.00000 0 -19225175.924 16355852.986 3668958.784 10 0 57955 84600.00000 0 -18636315.839 16022232.934 6820544.517 10 0 57955 85500.00000 0 -17830858.829 15354153.719 9839593.978 99